Regional Weather Roundup
Issued by NWS Pendleton, OR

Home | Current Version | Previous Version | Text Only | Print | Product List | Glossary On
Versions: 1 2 3 4 5 6 7 8 9 10 11 12 13 14 15 16 17 18 19 20 21 22 23 24 25 26 27 28 29 30 31 32 33 34 35 36 37 38 39 40 41 42 43 44 45 46 47 48 49 50
000
ASUS46 KPDT 020425
RWRPDT
PENDLETON REGIONAL WEATHER ROUNDUP
NATIONAL WEATHER SERVICE PENDLETON OREGON
900 PM PDT FRI AUG 1 2014

NOTE: FAIR INDICATES FEW OR NO CLOUDS BELOW 12,000 FEET WITH NO
SIGNIFICANT WEATHER AND/OR OBSTRUCTIONS TO VISIBILITY.

# INDICATES UNOFFICIAL STATION AND DATA

WAZ520-020510-
EAST SLOPES OF WASHINGTON CASCADES

CITY            SKY/WX      TMP DP  RH  WIND    PRES   REMARKS
#BUMPING DAM    N/A         59  N/A N/A NW3     N/A
#CLE ELUM HS    N/A         78  54  43  W2      29.93R
#CLE ELUM LAKE  N/A         75  50  41  CALM    29.84R
#CLIFFDEL 2NW   N/A         69  56  63  CALM    N/A
#GLENWOOD       N/A         78  56  47  CALM    29.82F
#MANASTASH CYN  N/A         73  50  44  CALM    30.01R
#NELSON 3SW     N/A         69  54  59  CALM    30.05S
#NILE           N/A         76  54  46  W3      29.17R
#RONALD 2NW     N/A         75  51  43  NE1     29.91S
#TROUT LAKE 1NE N/A         67  65  93  W1      29.82R
$$

WAZ521-020510-
SIMCOE HIGHLANDS

CITY            SKY/WX      TMP DP  RH  WIND    PRES   REMARKS
#BICKLETON HS   N/A         76  32  20  N7      30.03S
#CENTERVILLE 4W N/A         87  49  27  N6      29.69F
#CENTERVILLE 1SWN/A         86  48  27  CALM    29.76S
#GOLDENDALE 1NE N/A         87  35  16  N7      N/A
#GOLDENDALE 1S  N/A         86  49  28  E5      29.88S
#GOODNOE HILLS  N/A         88  46  23  NE10    29.81S
#LYLE 6NE       N/A         79  62  56  S5      29.78S
$$

WAZ026-020510-
KITTITAS VALLEY

CITY            SKY/WX      TMP DP  RH  WIND    PRES   REMARKS
ELLENSBURG AP   CLOUDY      82  52  35  N9      29.94R
#ELLENSBURG CWU N/A         80  53  39  N3      29.80R
#ELLENSBURG 3NE N/A         80  54  41  N6      29.94R
#KITTITAS 3S    N/A         72  64  76  CALM    29.82S
#THORP 6N       N/A         79  52  39  NW6     29.86S
$$

WAZ027-020510-
YAKIMA VALLEY

CITY            SKY/WX      TMP DP  RH  WIND    PRES   REMARKS
YAKIMA AIRPORT  CLOUDY      88  48  25  W5      29.89S
YAKIMA-VAGABOND MOCLDY      88  42  20  SE5     29.91S
#DONALD 2NE     N/A         84  41  22  S1      30.21R
#GRANDVIEW      N/A         79  60  52  CALM    29.82R
#MABTON         N/A         84  58  41  S1      29.84R
#MOXEE 2E       N/A         82  42  24  N5      29.82R
#NACHES 2SW     N/A         80  53  39  W8      29.94S
#OUTLOOK DOT    N/A         N/A N/A N/A N5      N/A
#SELAH 8E       N/A         84  45  26  N3      N/A
#TERRACE HTS    N/A         87  47  25  N2      29.78S
#TOPPENISH      N/A         80  66  62  CALM    29.73S
#WAPATO 4NE     N/A         84  34  17  W1      30.21R
#WEST VALLEY    N/A         87  50  28  CALM    29.80R
#W YAKIMA       N/A         84  51  32  N2      29.81R
#WHITE SWAN 5E  N/A         80  63  56  CALM    29.82R
#WILEY CITY 3W  N/A         77  38  24  CALM    29.89R
$$

WAZ028-020510-
LOWER COLUMBIA BASIN...WASHINGTON

CITY            SKY/WX      TMP DP  RH  WIND    PRES   REMARKS
PASCO           CLOUDY      83  65  55  NW6     29.82R
PROSSER AWOS    N/A         77  63  62  W2      29.88R
RICHLAND AWOS   MOCLDY      90  52  27  W5      29.82R HX 87
#BASIN CITY 5SW N/A         81  58  46  NW1     29.83S
#BENTON CITY    N/A         89  50  26  N1      29.70R
#CONNELL 5N     N/A         86  53  32  NW7     29.79R
#CONNELL 5NW    N/A         81  59  47  CALM    29.75R
#ELTOPIA 6NW    N/A         83  58  43  NW3     28.83R
#KENNEWICK 3S   N/A         90  52  27  CALM    29.79R HX 87
#PASCO-BROADMOORN/A         89  61  39  NE1     29.67S
#PATERSON       N/A         90  59  35  N7      29.78R HX 89
#PROSSER        N/A         88  50  27  SW6     29.80R
#SAGEMOOR 2W    N/A         82  61  49  NW1     29.65R
#TOUCHET 2S     N/A         80  59  49  CALM    29.76R
#WEST PASCO     N/A         88  58  36  CALM    29.80R
$$

WAZ029-020510-
FOOTHILLS OF THE BLUES...WASHINGTON

CITY            SKY/WX      TMP DP  RH  WIND    PRES   REMARKS
WALLA WALLA AP  MOCLDY      90  54  30  S7      29.88R HX 88
#COLLEGE PLACE  N/A         90  57  33  SW1     29.83R HX 89
#DAYTON SCHOOL  N/A         84  47  28  N5      29.88R
#LOWDEN 2SE     N/A         84  61  46  W2      29.78R
#PLEASANT VIEW 1N/A         91  44  20  W3      29.80S HX 87
#PRESCOTT       N/A         82  59  46  CALM    29.75R
#SUDBURY        N/A         88  N/A N/A E3      N/A
#WHITMAN COLLEGEN/A         90  60  37  SE2     29.83R HX 90
#WAITSBURG 8N   N/A         80  28  15  CALM    29.71S
#WALLA WALLA 5E N/A         80  49  34  CALM    N/A
#WALLA WALLA U  N/A         89  61  39  CALM    29.78R
#WHITMAN MISSIONN/A         87  59  39  CALM    29.79R
$$

WAZ030-020510-
BLUE MOUNTAINS...WASHINGTON

CITY            SKY/WX      TMP DP  RH  WIND    PRES   REMARKS
$$

ORZ009-041-WAZ024-020510-
COLUMBIA RIVER GORGE

CITY            SKY/WX      TMP DP  RH  WIND    PRES   REMARKS
HOOD RIVER AP   MOCLDY      82  61  49  CALM    29.87R
THE DALLES AP   CLOUDY      87  60  40  NW8     29.81R
#ARLINGTON AIRPON/A         88  52  29  E6      N/A
#ARLINGTON HS   N/A         88  51  28  CALM    29.69R
#CELILO DOT     N/A         94  59  31  N3      N/A    HX 93
#MOSIER 1S      N/A         82  50  33  CALM    29.91S
#MURDOCK        N/A         88  63  43  NW10    29.81R
#RUFUS DOT      N/A         94  58  30  E2      N/A    HX 93

$$

ORZ510-020510-
NORTH CENTRAL OREGON

CITY            SKY/WX      TMP DP  RH  WIND    PRES   REMARKS
#CHENOWITH 1W   N/A         80  58  47  W20     N/A
#COW CYN RST AREN/A         82  42  24  N7      N/A
#DUFUR 9E       N/A         82  55  40  SE2     29.81F
#GRASS VALLEY 1SN/A         80  49  34  CALM    29.82R
#KENT DOT       N/A         80  40  24  NE7     N/A
#MAUPIN SCHOOL  N/A         91  50  25  CALM    29.88R HX 88
#MORO SCHOOL    N/A         82  57  43  CALM    29.93R
#SHANIKO 5WSW   N/A         80  39  23  NE13    N/A
#SHANIKO 4NW    N/A         80  40  24  NE13    N/A
#TYGH VALLEY 2NEN/A         91  54  29  N7      29.76R HX 89
#WAPANITIA AIRPON/A         83  50  32  CALM    29.79R
#WASCO DOT      N/A         81  50  34  SW2     N/A
#WASCO AIRPORT  N/A         85  40  20  E5      N/A
#WASCO 5NE      N/A         74  44  34  CALM    29.79R
$$

ORZ511-020510-
CENTRAL OREGON

CITY            SKY/WX      TMP DP  RH  WIND    PRES   REMARKS
BEND AIRPORT    PTCLDY      81  46  29  NW7     30.04R
MADRAS AIRPORT  CLEAR       79  46  31  N3      29.96R
REDMOND AIRPORT PTCLDY      83  44  25  N7      29.99R
#BEND 6E        N/A         80  44  28  CALM    29.71R
#BEND 1SW       N/A         76  44  32  CALM    N/A
#BEND-AWBREY    N/A         80  49  34  S3      29.81R
#BEND-KIM LN    N/A         80  48  33  NW1     30.01R
#CROOKED RVR RANN/A         84  49  30  E12     29.78R
#CULVER         N/A         80  51  36  CALM    29.93R
#LAKE BILLY CHINN/A         84  10   6  CALM    29.99R
#POWELL BUTTE 3EN/A         81  53  38  W3      N/A
#POWELL BUTTE   N/A         80  47  31  CALM    29.67R
#PRINEVILLE 3N  N/A         82  54  38  CALM    29.74R
#WARM SPRINGS   N/A         85  53  33  S5      29.88R


ORZ509-020510-
EAST SLOPES OF OREGON CASCADES

CITY            SKY/WX      TMP DP  RH  WIND    PRES   REMARKS
#BLUE BOX PASS  N/A         66  11  11  CALM    N/A
#CAMP SHERMAN   N/A         67  60  78  CALM    29.89R
#LA PINE DOT    N/A         77  51  40  W5      N/A
#LA PINE 4NW    N/A         77  56  48  CALM    29.85R
#LAVA BUTTE DOT N/A         77  45  32  CALM    N/A
#SISTERS AIRPOR N/A         80  63  56  N2      30.01R
#SISTERS ODOT   N/A         79  N/A N/A CALM    N/A
#SISTERS 1NW    N/A         80  50  35  W6      N/A
#SISTERS 3N     N/A         74  50  43  CALM    N/A
#SUNRIVER AP    N/A         77  51  40  CALM    29.78R
#SUTTLE LK DOT  N/A         64  58  81  SW1     N/A
#TUMALO 3W      N/A         81  50  34  NW7     29.70R
#WANOGA BUTTE D N/A         67  44  43  CALM    N/A

$$

ORZ044-020510-
LOWER COLUMBIA BASIN...OREGON

CITY            SKY/WX      TMP DP  RH  WIND    PRES   REMARKS
HERMISTON       PTCLDY      84  58  41  MISG    29.83R
#BOARDMAN SCHOOLN/A         88  57  35  CALM    29.79R
#BOARDMAN 3W    N/A         83  57  41  SE1     29.50S
#BOARDMAN 8SW   N/A         88  58  36  N3      29.80R
#IONE SCHOOL    N/A         87  46  24  CALM    29.86R
#IRRIGON 4NW    N/A         89  58  35  NW2     N/A
#UMATILLA SCHOOLN/A         89  67  48  CALM    29.90S
#UMATILLA       N/A         90  53  28  CALM    29.80R HX 88
$$

ORZ507-020510-
NORTHERN FOOTHILLS OF THE BLUES

CITY            SKY/WX      TMP DP  RH  WIND    PRES   REMARKS
PENDLETON AIRPT PTCLDY      85  44  24  N5      29.89R
#ADAMS 3WNW     N/A         82  49  32  NE1     29.78R
#ATHENA         N/A         82  52  35  CALM    29.81R
#HELIX SCHOOL   N/A         81  48  32  N1      29.80R
#HELIX 3N       N/A         82  48  31  N1      29.90R
#HELIX 6SW      N/A         84  48  29  CALM    29.90R
#HOLDMAN 5SE    N/A         84  47  28  CALM    29.90R
#HOLDMAN 6E     N/A         84  48  29  CALM    29.62R
#M-F FERNDALE   N/A         83  58  43  CALM    29.85R
#M-FREEWATER 5SEN/A         78  59  52  CALM    29.89R
#PDT AQUATIC CTRN/A         86  47  26  CALM    29.80R
#PDT SUNRIDGE   N/A         84  50  31  E1      29.88R
#PENDLETON 7NW  N/A         83  51  33  CALM    31.98S
#PILOT ROCK     N/A         81  58  46  S8      29.94R
#TUTUILLA       N/A         78  54  43  S3      29.76R
#UMAPINE 2E     N/A         80  63  56  CALM    29.80R
#WESTON SCHOOL  N/A         80  48  33  CALM    29.90R

$$

ORZ508-020510-
SOUTHERN FOOTHILLS OF THE BLUES

CITY            SKY/WX      TMP DP  RH  WIND    PRES   REMARKS
#AJAX           N/A         85  42  22  E7      29.87S
#CONDON SCHOOL  N/A         81  46  29  N2      29.96R
#CONDON 5W      N/A         80  41  25  N2      29.99S
#FOSSIL SCHOOL  N/A         83  48  30  CALM    29.96R
#HEPPNER 4NE    N/A         78  46  32  E1      29.80R
#LEXINGTON 2SE  N/A         85  46  26  CALM    29.87R
#MIKKALO        N/A         80  42  26  CALM    29.94R
#OLEX 4N        N/A         86  47  26  CALM    29.85S
#RUGGS 5NE      N/A         80  43  27  E2      30.17S
#RUGGS 2SW      N/A         81  44  27  SW1     29.84R

$$

ORZ502-503-020510-
BLUE MOUNTAINS

CITY            SKY/WX      TMP DP  RH  WIND    PRES   REMARKS
MEACHAM         MOCLDY      69  58  68  CALM    30.07R
#BATTLE MTN DOT N/A         73  55  53  N3      N/A
#HARDMAN 10S    N/A         75  50  41  CALM    30.13S
#HEPPNER 15SE   N/A         61  56  84  CALM    30.02R
#LADD CYN SMT   N/A         70  51  51  CALM    N/A
#LADD CREEK ODOTN/A         72  59  64  W3      N/A
#LONG CREEK HS  N/A         80  51  36  NE5     29.99R
#N POWDER DOT   N/A         65  63  93  W3      N/A
#PIKES PEAK     N/A         83  49  31  SW6     27.99S
#TOLLGATE       N/A         68  51  55  CALM    30.07S
#TOLLGATE 9W    N/A         77  62  60  NE1     N/A
#TROY SCHOOL    N/A         80  56  44  CALM    29.67R
#UKIAH          N/A         77  53  43  CALM    29.87R
#WESTON 4E      N/A         78  51  39  CALM    29.75S
$$

ORZ505-020510-
JOHN DAY BASIN

CITY            SKY/WX      TMP DP  RH  WIND    PRES   REMARKS
JOHN DAY        THUNDER     79  47  32  S7      30.07R
#JOHN DAY KJDY  N/A         82  44  26  CALM    30.14R
#MONUMENT HS    N/A         89  47  24  N3      29.66R
#MT. VERNON 5SE N/A         78  47  34  S1      30.03R
#WINLOCK        N/A         78  48  35  CALM    30.08R
$$

ORZ506-020510-
OCHOCO AND JOHN DAY HIGHLANDS

CITY            SKY/WX      TMP DP  RH  WIND    PRES   REMARKS
#BUCK CREEK DOT N/A         78  57  48  SE16    N/A
#HORSE RIDGE DO N/A         81  41  24  NW9     N/A
#KEYES SMT DOT  N/A         79  46  31  W2      N/A
#PINE MTN OBS   N/A         71  40  32  NW5     N/A
#SENECA 9NW     N/A         62  56  81  N1      29.82R
$$

ORZ049-020510-
GRANDE RONDE VALLEY

CITY            SKY/WX      TMP DP  RH  WIND    PRES   REMARKS
LA GRANDE       CLOUDY      75  46  36  CALM    29.98S
#COVE           N/A         74  56  53  N1      29.91S
#COVE SCHOOL    N/A         74  54  50  CALM    29.98R
#COVE 6NW       N/A         75  55  50  CALM    29.89S
#ELGIN 1E       N/A         78  55  45  CALM    N/A
#IMBLER SCHOOL  N/A         72  55  55  CALM    29.94S
#ISLAND CITY 4N N/A         71  56  59  CALM    29.79S
#LADD CYN DOT   N/A         76  56  50  SE15    N/A
#UNION 1S       N/A         78  52  40  E1      29.75S
$$

ORZ050-020510-
WALLOWA COUNTY

CITY            SKY/WX      TMP DP  RH  WIND    PRES   REMARKS
JOSEPH AIRPORT  PTCLDY      73  48  41  CALM    30.10F
#ENTERPRISE AP  N/A         76  49  39  E6      30.02S
#ENTERPRISE HS  N/A         74  51  44  CALM    30.05F
#IMNAHA SCHOOL  N/A         80  43  27  CALM    29.91R
#IMNAHA 10S     N/A         81  46  29  SW3     29.99R
#JOSEPH 3N      N/A         68  54  61  CALM    30.10F
#JOSEPH 3W      N/A         75  43  32  CALM    29.97F
#LOSTINE        N/A         76  51  42  CALM    29.67S
#MT HOWARD 8000 N/A         63  40  43  SE6     30.41S
#PROMISE 1S     N/A         71  49  46  E1      29.95F
#SHEEP RDG 7000 N/A         67  41  39  CALM    29.85F
#WALLOWA SCHOOL N/A         71  57  61  CALM    30.73S



$$



USA.gov is the U.S. government's official web portal to all federal, state and local government web resources and services.